Regional Weather Roundup
Issued by NWS Green Bay, WI

Home | Current Version | Previous Version | Graphics & Text | Print | Product List | Glossary Off
Versions: 1 2 3 4 5 6 7 8 9 10 11 12 13 14 15 16 17 18 19 20 21 22 23 24 25 26 27 28 29 30 31 32 33 34 35 36 37 38 39 40 41 42 43 44 45 46 47 48 49 50

000
ASUS43 KGRB 231900
RWRGRB

NORTH-CENTRAL AND NORTHEAST WISCONSIN REGIONAL WEATHER ROUNDUP
NATIONAL WEATHER SERVICE GREEN BAY WI
200 PM CDT TUE AUG 23 2016

WIZ005-009-010>012-018-019-232000-
NORTH CENTRAL WISCONSIN

CITY           SKY/WX    TMP DP  RH WIND       PRES   REMARKS
IRONWOOD       SUNNY     82  63  52 S15G29    29.95F
MANITOWISH WTR NOT AVBL
ARBOR VITAE    NOT AVBL
EAGLE RIVER    NOT AVBL
LAND O LAKES   NOT AVBL
RHINELANDER    SUNNY     79  64  60 S12G24    30.06S
PHILLIPS       SUNNY     78  65  63 SW17G25   30.01F
ANTIGO         NOT AVBL
TOMAHAWK       NOT AVBL
MERRILL        MOSUNNY   78  65  63 SW9G22    30.07S
$$

WIZ013-073-232000-
NORTHEAST WISCONSIN

CITY           SKY/WX    TMP DP  RH WIND       PRES   REMARKS
IRON MOUNTAIN  SUNNY     81  62  52 S16G25    30.05F
MARINETTE      CLOUDY   N/A N/A N/A SW20G25   30.08F
$$

WIZ017-030-035>037-045-232000-
CENTRAL WISCONSIN

CITY           SKY/WX    TMP DP  RH WIND       PRES   REMARKS
MEDFORD        NOT AVBL
WAUSAU         CLOUDY    78  62  57 S14       30.05F
MOSINEE        SUNNY     79  63  57 S14G22    30.08F
MARSHFIELD     MOSUNNY   81  63  54 S15G24    30.05F
WISC RAPIDS    PTSUNNY   80  64  58 SW13      30.08F
STEVENS POINT  NOT AVBL
WAUPACA        NOT AVBL
SHAWANO        NOT AVBL
CLINTONVILLE   PTSUNNY   81  61  50 S15       30.08F
WAUTOMA        PTSUNNY   79  64  60 S10G21    30.09F
$$

WIZ038-039-048-051-232000-
FOX VALLEY

CITY           SKY/WX    TMP DP  RH WIND       PRES   REMARKS
NWS GREEN BAY  MOSUNNY   79  64  60 S15G24    30.09F
APPLETON       PTSUNNY   79  57  47 SW13      30.10F
OSHKOSH        PTSUNNY   80  64  58 SW13      30.10F
FOND DU LAC    PTSUNNY   77  63  61 S14       30.11F
$$

WIZ022-050-052-232000-
EAST CENTRAL WISCONSIN

CITY           SKY/WX    TMP DP  RH WIND       PRES   REMARKS
EPHRAIM        FAIR      77  65  65 S8G17     30.09F
WASHINGTON ISL NOT AVBL
STURGEON BAY   CLOUDY    77  65  66 S15       30.10F
MANITOWOC      NOT AVBL
SHEBOYGAN      PTSUNNY   76  63  64 S12       30.13F
$$

LMZ563-521-522-541>543-232000-
LAKESHORE

STATION/POSITION TIME  TEMP    WIND        PRES    VSBY  WAVE
                       AIR SEA DIR/SP/G                  HT/PER
                 (UTC) (F)     (DEG/KT/KT) (MB)    (MI)  (FT/S)
SHEBOYGAN LKSHOR 1800   66     180/ 16/ 17 1020.9F
KEWAUNEE LKSHORE 1800   66     180/ 12/ 14 1019.8F
NORTHPORT PIER   1800   75     150/  8/ 13 1018.6F
N MID LAKE BUOY  1750   71 71  210/ 19/ 23 1018.7F         5/ 6
S GREEN BAY BUOY 1800   76 73  210/ 12/ 16 1018.7F
SISTER BAY LKSHO 1807   81     180/ 12/ 16   N/A
CHAMBERS ISLAND  1840   78     180/  7/ 12 1018.6F
MENOMINEE LKSHOR 1800   77     190/ 12/ 20 1018.1F
$$




USA.gov is the U.S. government's official web portal to all federal, state and local government web resources and services.